Wind_Speed
35 35 36 36 37 38 39 39 39 38 38 38 38 38 38 38 38 39 39 40 39 39 40 40 40 40 40 40 40 40 39 38 38 37 38 39 38 37
34 35 35 35 35 37 38 38 38 38 37 37 36 37 38 38 38 38 39 39 39 39 39 40 40 40 39 39 39 39 39 38 37 37 37 37 37 36
32 32 34 35 35 36 36 37 37 37 36 36 36 37 37 37 38 38 38 38 39 38 39 39 39 39 39 38 38 38 37 37 37 37 36 36 36 36
31 31 32 33 35 35 36 36 37 37 37 36 37 37 37 37 37 38 38 39 38 38 37 37 37 38 38 37 36 35 35 35 35 34 34 34 34 34
29 29 30 32 33 33 34 35 36 36 36 36 36 36 36 37 37 38 38 38 38 38 37 36 36 36 36 35 34 33 32 33 33 32 32 31 31 31
27 27 27 28 29 31 32 32 32 32 32 32 32 33 34 35 35 36 37 38 37 37 36 35 34 34 33 33 31 31 31 31 31 30 30 29 29 29
25 25 25 26 27 27 28 28 29 29 29 29 29 30 31 32 33 34 34 34 33 33 32 31 31 30 29 29 29 29 29 28 28 27 27 27 26 26
22 23 23 23 23 23 25 25 26 27 27 27 28 27 28 29 30 31 31 29 29 28 28 28 27 26 26 26 26 26 25 25 25 25 25 24 24 24
20 21 21 21 21 21 21 21 22 23 23 24 25 25 25 26 26 26 26 25 24 24 24 24 24 24 24 24 24 23 23 23 22 23 23 23 22 22
18 19 19 19 19 18 18 18 19 19 20 21 22 22 22 22 21 20 20 19 19 19 20 20 21 22 22 21 21 21 21 21 21 21 20 20 20 21
16 16 16 16 15 15 15 15 16 17 18 18 18 18 18 17 17 17 16 16 16 17 18 18 18 19 19 19 19 19 19 19 18 18 19 19 19 19
12 12 12 12 12 12 12 13 13 13 14 14 14 14 15 14 13 13 13 14 15 15 16 16 16 17 17 16 16 16 16 16 16 16 17 17 17 17
8 8 8 8 8 9 9 9 10 10 10 11 11 11 11 10 11 11 11 12 13 13 13 13 13 13 13 13 13 14 14 15 15 15 16 16 16 16
5 5 6 6 6 6 7 7 7 8 8 9 9 9 8 8 8 9 10 10 11 11 11 11 11 11 11 11 12 12 13 13 14 15 15 15 15 16
2 2 2 3 4 4 4 5 6 6 7 7 7 7 7 7 7 7 8 8 9 9 9 9 9 10 10 10 12 12 13 13 14 14 15 15 15 15
1 1 2 2 3 3 4 5 5 4 4 4 4 5 5 6 6 7 7 7 7 7 7 8 8 9 9 10 11 12 13 13 14 14 14 15 15 15
4 4 4 4 4 4 4 4 3 3 3 3 4 4 5 5 6 6 6 6 7 8 8 8 9 9 10 11 11 12 13 13 14 14 15 15 16 16
6 6 6 5 5 5 4 4 4 4 4 3 4 4 4 5 5 5 5 6 6 7 8 9 9 10 10 11 12 13 14 14 15 15 16 16 16 17
8 8 7 7 6 6 5 5 5 4 4 4 4 4 5 5 5 5 5 6 6 7 8 9 10 10 11 12 13 13 14 15 16 16 16 16 17 18
9 8 8 7 7 6 6 6 5 5 5 5 5 5 5 5 5 5 5 6 7 8 9 9 10 11 11 12 13 14 15 15 15 16 17 18 18 18
10 9 9 8 8 8 7 7 7 6 6 6 6 6 6 6 6 6 7 7 8 8 9 10 11 11 12 13 14 15 15 15 16 16 17 18 19 19
11 11 10 10 10 9 9 9 8 8 7 7 7 7 7 7 7 7 7 8 8 9 10 11 12 13 14 14 15 16 16 17 17 18 18 19 19 20
12 11 11 11 11 10 10 9 9 8 8 8 8 8 8 8 8 8 9 9 10 11 12 13 14 14 15 16 17 17 18 18 19 19 20 20 21 21
Wind_Direction
259 259 259 258 257 257 258 259 260 261 262 263 263 263 265 267 267 267 268 269 270 271 272 273 273 274 274 274 275 276 277 277 278 280 281 281 282 282
261 261 259 259 259 261 261 261 260 260 261 262 263 265 267 267 268 267 267 269 270 272 274 274 274 275 275 276 276 276 276 277 278 280 282 282 282 282
262 262 259 258 260 261 261 262 262 261 263 264 264 266 266 266 266 267 268 271 273 275 276 275 275 275 276 277 278 278 279 279 281 282 283 282 283 284
262 261 260 259 260 261 262 262 262 262 263 264 265 266 266 267 268 269 271 274 275 276 277 277 277 276 277 277 278 279 280 281 282 283 284 284 286 286
263 261 260 260 261 261 262 262 262 263 264 264 266 266 267 269 271 272 274 275 276 277 278 278 277 276 276 276 277 278 279 281 282 283 285 285 286 286
262 262 261 260 261 264 263 263 263 264 264 265 266 267 269 271 273 274 276 276 276 277 278 277 277 278 277 276 277 278 280 282 282 283 283 284 285 287
263 263 265 265 265 266 265 265 264 264 264 265 268 269 270 272 273 274 276 276 275 275 276 276 278 278 275 275 277 278 280 281 282 282 283 284 286 287
265 267 268 269 268 268 268 267 266 267 267 268 271 272 271 271 271 273 274 275 274 275 275 276 277 277 277 278 278 279 281 281 282 282 284 286 288 289
266 267 268 269 270 270 270 270 269 271 272 272 272 273 274 272 271 271 272 274 275 276 275 275 276 277 278 279 279 280 281 281 283 285 286 287 290 291
267 267 267 269 271 272 271 272 273 275 275 276 275 277 276 274 274 274 273 273 274 274 275 276 277 279 279 278 278 280 281 283 284 285 288 290 292 293
266 265 266 269 269 272 274 274 275 276 276 277 276 278 280 279 277 277 273 274 275 277 278 279 280 280 280 280 280 281 282 284 285 287 290 292 294 295
262 263 263 267 270 274 278 281 281 282 282 280 279 280 281 278 275 274 276 276 278 280 280 279 280 282 283 282 282 281 282 284 286 290 293 295 297 298
263 263 263 269 272 275 281 285 289 290 287 286 286 289 284 280 278 278 278 280 280 280 281 280 281 284 285 285 284 283 285 288 289 292 295 297 298 300
258 259 262 267 272 275 279 287 297 297 290 289 289 287 281 281 284 284 280 279 279 282 284 285 285 287 287 285 287 288 290 291 292 295 297 299 300 301
250 270 277 281 289 294 295 301 306 305 304 300 292 286 286 289 290 292 291 287 288 288 287 288 290 290 289 287 287 287 289 292 293 295 298 300 301 302
80 47 23 11 351 342 333 327 321 319 318 310 305 301 298 295 294 296 297 294 293 294 295 296 296 291 286 286 285 284 285 288 291 294 298 300 301 301
79 61 46 31 20 14 5 -0 1 358 347 340 329 320 315 311 306 300 297 298 296 294 295 295 296 296 294 292 290 289 290 292 293 296 297 298 299 300
76 65 54 48 44 40 34 29 27 21 9 355 342 335 334 331 324 316 306 303 304 302 299 298 300 301 300 298 296 295 295 296 297 297 296 296 297 300
73 69 62 57 53 47 41 37 34 27 18 11 2 351 345 340 334 329 323 319 314 310 308 306 304 303 304 304 302 299 298 298 299 298 299 300 300 301
72 67 62 56 50 44 38 36 32 29 25 18 11 6 1 355 349 342 336 329 324 320 317 315 312 309 307 306 305 303 301 301 300 300 300 300 301 302
68 63 58 54 49 45 41 39 38 37 36 32 24 17 8 358 350 343 338 333 329 326 324 321 319 316 313 310 309 307 306 304 302 301 301 301 302 302
66 63 60 57 53 50 47 46 45 42 38 33 26 18 10 2 356 348 342 337 334 330 328 325 322 320 317 315 313 312 310 307 304 303 302 303 303 304
64 62 59 56 53 50 47 45 42 37 32 26 19 13 8 1 354 348 342 338 334 330 327 325 322 320 318 316 315 313 312 310 308 306 304 303 303 303
Height
5778 5780 5781 5782 5782 5783 5783 5784 5785 5785 5785 5785 5785 5785 5785 5786 5786 5786 5785 5785 5785 5784 5783 5782 5782 5781 5780 5779 5778 5777 5775 5774 5772 5771 5769 5767 5765 5763
5770 5771 5771 5772 5773 5774 5774 5775 5776 5776 5776 5776 5776 5776 5776 5776 5776 5776 5776 5775 5775 5774 5773 5773 5772 5771 5770 5769 5768 5766 5765 5764 5763 5761 5759 5757 5755 5753
5761 5762 5762 5764 5764 5765 5766 5766 5767 5767 5767 5767 5767 5767 5767 5767 5767 5767 5766 5766 5765 5765 5764 5763 5762 5761 5760 5759 5758 5757 5756 5754 5753 5752 5750 5748 5746 5744
5753 5753 5754 5755 5755 5756 5757 5758 5758 5758 5759 5759 5759 5759 5759 5759 5758 5758 5757 5756 5756 5755 5754 5753 5753 5752 5751 5750 5749 5748 5747 5746 5745 5743 5741 5739 5737 5735
5745 5746 5746 5747 5747 5748 5748 5749 5749 5750 5750 5750 5750 5750 5750 5750 5749 5749 5748 5747 5747 5746 5745 5744 5743 5743 5742 5741 5740 5740 5739 5737 5736 5734 5732 5731 5729 5727
5738 5738 5738 5739 5739 5740 5740 5741 5741 5741 5741 5742 5742 5742 5741 5741 5741 5740 5740 5739 5738 5737 5736 5735 5734 5734 5733 5733 5732 5731 5730 5729 5728 5726 5725 5723 5721 5719
5731 5731 5732 5732 5732 5732 5732 5733 5733 5733 5734 5734 5734 5733 5733 5733 5732 5731 5731 5730 5729 5728 5728 5727 5727 5726 5725 5725 5724 5723 5722 5721 5720 5719 5717 5716 5714 5712
5725 5725 5725 5726 5725 5725 5725 5726 5726 5726 5727 5727 5726 5726 5726 5725 5724 5723 5722 5722 5721 5721 5720 5720 5719 5718 5718 5717 5717 5716 5715 5714 5713 5712 5710 5709 5707 5705
5719 5720 5720 5720 5720 5720 5720 5720 5720 5720 5720 5720 5720 5719 5719 5718 5717 5716 5715 5714 5714 5714 5714 5714 5713 5712 5711 5710 5710 5709 5709 5708 5707 5706 5704 5703 5701 5699
5714 5714 5715 5714 5714 5714 5715 5715 5714 5714 5714 5714 5714 5713 5712 5711 5711 5710 5709 5709 5709 5709 5708 5708 5707 5706 5706 5705 5704 5703 5703 5702 5702 5700 5699 5697 5696 5694
5709 5710 5710 5710 5710 5710 5710 5710 5710 5709 5709 5708 5708 5707 5706 5706 5705 5705 5705 5704 5704 5704 5703 5703 5702 5702 5701 5700 5699 5698 5698 5697 5696 5695 5694 5693 5691 5689
5705 5705 5706 5706 5706 5706 5706 5706 5706 5705 5705 5704 5703 5703 5702 5702 5701 5701 5701 5701 5700 5700 5699 5699 5698 5697 5697 5696 5695 5694 5694 5693 5692 5691 5690 5688 5687 5685
5702 5702 5703 5703 5703 5703 5703 5703 5702 5702 5701 5701 5700 5700 5699 5698 5698 5698 5697 5697 5697 5696 5696 5695 5694 5694 5693 5692 5691 5691 5690 5689 5688 5687 5686 5684 5683 5681
5700 5700 5701 5701 5701 5701 5701 5700 5700 5699 5698 5698 5697 5697 5696 5696 5695 5695 5695 5694 5694 5693 5692 5692 5692 5691 5690 5689 5689 5688 5687 5686 5685 5684 5682 5681 5679 5677
5699 5699 5699 5700 5700 5699 5699 5698 5698 5697 5696 5695 5695 5694 5694 5694 5693 5693 5692 5692 5691 5691 5690 5690 5689 5688 5688 5687 5686 5685 5684 5683 5682 5680 5679 5677 5675 5673
5698 5698 5698 5698 5698 5698 5697 5697 5696 5695 5694 5694 5694 5693 5692 5692 5692 5691 5691 5690 5690 5689 5688 5688 5687 5686 5685 5684 5684 5683 5681 5680 5679 5677 5675 5673 5671 5669
5698 5699 5699 5698 5698 5697 5697 5696 5695 5695 5694 5694 5693 5692 5691 5691 5690 5689 5689 5688 5688 5687 5687 5686 5685 5684 5683 5682 5681 5679 5678 5677 5675 5674 5672 5670 5668 5666
5699 5699 5699 5699 5698 5698 5697 5696 5696 5695 5694 5693 5693 5692 5691 5690 5689 5689 5688 5687 5686 5685 5685 5684 5683 5681 5681 5679 5678 5676 5675 5673 5672 5670 5668 5666 5664 5662
5701 5701 5700 5700 5699 5699 5698 5697 5696 5696 5695 5694 5693 5692 5691 5690 5689 5688 5687 5686 5685 5684 5683 5682 5680 5679 5678 5677 5675 5673 5672 5670 5668 5666 5664 5662 5660 5658
5703 5702 5702 5701 5701 5700 5699 5698 5697 5696 5695 5694 5693 5692 5691 5690 5689 5688 5687 5685 5684 5683 5682 5680 5679 5677 5675 5674 5672 5670 5668 5666 5664 5662 5660 5658 5656 5654
5705 5704 5704 5703 5702 5701 5700 5699 5698 5697 5696 5695 5694 5693 5692 5690 5689 5688 5686 5685 5684 5682 5681 5679 5677 5675 5673 5671 5669 5667 5665 5663 5661 5658 5656 5654 5651 5649
5707 5707 5706 5705 5704 5703 5702 5701 5700 5699 5697 5696 5695 5694 5692 5691 5689 5688 5686 5685 5683 5681 5679 5677 5675 5673 5671 5669 5666 5664 5662 5659 5657 5654 5652 5649 5646 5644
5710 5709 5708 5707 5706 5705 5704 5702 5701 5700 5699 5697 5696 5694 5693 5691 5689 5687 5686 5684 5682 5680 5678 5675 5673 5671 5668 5666 5663 5660 5658 5655 5652 5650 5647 5644 5642 5639